| time (UTC) | temp F | wind direction | speed MPH | gust MPH | rain 1hr in | rain 24hr in | rain mn in | humidity % | barometer mb |
| 20260831230854 | 88 | 281 | 0.0 | 4.0 | 0.00 | 0.00 | 0.00 | 40 | |
| 20260831230345 | 88 | 145 | 0.0 | 4.0 | 0.00 | 0.00 | 0.00 | 41 | |
| 20260831225205 | 89 | 305 | 0.0 | 8.0 | 0.00 | 0.00 | 0.00 | 41 | |
| 20260831224030 | 88 | 304 | 2.0 | 8.0 | 0.00 | 0.00 | 0.00 | 44 | |
| 20260831223540 | 89 | 294 | 3.0 | 7.0 | 0.00 | 0.00 | 0.00 | 44 | |
| 20260831222420 | 89 | 295 | 3.0 | 6.0 | 0.00 | 0.00 | 0.00 | 41 | |
| 20260831221903 | 89 | 307 | 2.0 | 5.0 | 0.00 | 0.00 | 0.00 | 40 | |
| 20260831220728 | 89 | 242 | 0.0 | 5.0 | 0.00 | 0.00 | 0.00 | 41 | |
| 20260831220220 | 89 | 82 | 0.0 | 5.0 | 0.00 | 0.00 | 0.00 | 41 | |
| 20260831215729 | 89 | 76 | 0.0 | 5.0 | 0.00 | 0.00 | 0.00 | 41 | |
| 20260831215214 | 90 | 78 | 1.0 | 3.0 | 0.00 | 0.00 | 0.00 | 39 | |
| 20260831214722 | 90 | 138 | 0.0 | 5.0 | 0.00 | 0.00 | 0.00 | 40 | |
| 20260831214211 | 91 | 111 | 0.0 | 5.0 | 0.00 | 0.00 | 0.00 | 42 | |
| 20260831213031 | 90 | 40 | 0.0 | 5.0 | 0.00 | 0.00 | 0.00 | 43 | |
| 20260831212527 | 90 | 21 | 0.0 | 4.0 | 0.00 | 0.00 | 0.00 | 44 | |
| 20260831212030 | 90 | 40 | 0.0 | 4.0 | 0.00 | 0.00 | 0.00 | 43 | |
| 20260831211514 | 89 | 76 | 0.0 | 4.0 | 0.00 | 0.00 | 0.00 | 43 | |
| 20260831211001 | 89 | 338 | 0.0 | 3.0 | 0.00 | 0.00 | 0.00 | 45 | |
| 20260831210502 | 89 | 266 | 1.0 | 3.0 | 0.00 | 0.00 | 0.00 | 46 | |
| 20260831205352 | 89 | 283 | 1.0 | 3.0 | 0.00 | 0.00 | 0.00 | 47 | |
| 20260831204833 | 89 | 342 | 0.0 | 3.0 | 0.00 | 0.00 | 0.00 | 47 | |
| 20260831204323 | 88 | 322 | 0.0 | 4.0 | 0.00 | 0.00 | 0.00 | 48 | |
| 20260831203815 | 87 | 162 | 0.0 | 4.0 | 0.00 | 0.00 | 0.00 | 48 | |
| 20260831203311 | 87 | 315 | 1.0 | 4.0 | 0.00 | 0.00 | 0.00 | 50 | |
| 20260831202756 | 87 | 90 | 1.0 | 4.0 | 0.00 | 0.00 | 0.00 | 50 | |
| 20260831202250 | 87 | 19 | 0.0 | 4.0 | 0.00 | 0.00 | 0.00 | 50 | |
| 20260831201133 | 86 | 221 | 1.0 | 7.0 | 0.00 | 0.00 | 0.00 | 51 | |
| 20260831200623 | 85 | 302 | 2.0 | 9.0 | 0.00 | 0.00 | 0.00 | 52 | |
| 20260831200121 | 85 | 316 | 3.0 | 9.0 | 0.00 | 0.00 | 0.00 | 52 | |
| 20260831195624 | 85 | 285 | 3.0 | 9.0 | 0.00 | 0.00 | 0.00 | 53 | |
| 20260831195133 | 85 | 290 | 4.0 | 9.0 | 0.00 | 0.00 | 0.00 | 51 | |
| 20260831194639 | 86 | 266 | 4.0 | 9.0 | 0.00 | 0.00 | 0.00 | 51 | |
| 20260831194126 | 86 | 304 | 4.0 | 9.0 | 0.00 | 0.00 | 0.00 | 50 | |
| 20260831193010 | 86 | 300 | 3.0 | 7.0 | 0.00 | 0.00 | 0.00 | 51 | |
| 20260831192458 | 86 | 330 | 3.0 | 8.0 | 0.00 | 0.00 | 0.00 | 51 | |
| 20260831191957 | 86 | 306 | 4.0 | 8.0 | 0.00 | 0.00 | 0.00 | 51 | |
| 20260831191441 | 86 | 334 | 3.0 | 8.0 | 0.00 | 0.00 | 0.00 | 50 | |
| 20260831190942 | 87 | 306 | 2.0 | 8.0 | 0.00 | 0.00 | 0.00 | 49 | |
| 20260831190447 | 87 | 296 | 1.0 | 6.0 | 0.00 | 0.00 | 0.00 | 50 | |
| 20260831185330 | 86 | 337 | 0.0 | 5.0 | 0.00 | 0.00 | 0.00 | 49 | |
| 20260831184817 | 86 | 329 | 0.0 | 5.0 | 0.00 | 0.00 | 0.00 | 49 | |
| 20260831184304 | 86 | 49 | 1.0 | 5.0 | 0.00 | 0.00 | 0.00 | 50 | |
| 20260831183802 | 86 | 342 | 1.0 | 5.0 | 0.00 | 0.00 | 0.00 | 49 | |
| 20260831183309 | 86 | 295 | 1.0 | 4.0 | 0.00 | 0.00 | 0.00 | 50 | |
| 20260831182757 | 85 | 296 | 1.0 | 5.0 | 0.00 | 0.00 | 0.00 | 51 | |
| 20260831182253 | 85 | 298 | 1.0 | 5.0 | 0.00 | 0.00 | 0.00 | 52 | |
| 20260831181744 | 85 | 298 | 1.0 | 5.0 | 0.00 | 0.00 | 0.00 | 52 | |
| 20260831181254 | 85 | 298 | 1.0 | 5.0 | 0.00 | 0.00 | 0.00 | 53 | |
| 20260831180739 | 84 | 298 | 1.0 | 5.0 | 0.00 | 0.00 | 0.00 | 54 | |
| 20260831180247 | 84 | 298 | 1.0 | 5.0 | 0.00 | 0.00 | 0.00 | 54 | |
| 20260831175751 | 84 | 297 | 2.0 | 5.0 | 0.00 | 0.00 | 0.00 | 55 | |
| 20260831175255 | 83 | 297 | 1.0 | 5.0 | 0.00 | 0.00 | 0.00 | 57 | |
| 20260831174755 | 83 | 296 | 1.0 | 4.0 | 0.00 | 0.00 | 0.00 | 56 | |
| 20260831173643 | 82 | 297 | 1.0 | 5.0 | 0.00 | 0.00 | 0.00 | 58 | |
| 20260831172516 | 81 | 298 | 0.0 | 3.0 | 0.00 | 0.00 | 0.00 | 60 | |
| 20260831172022 | 80 | 298 | 0.0 | 3.0 | 0.00 | 0.00 | 0.00 | 61 | |
| 20260831171503 | 79 | 298 | 0.0 | 2.0 | 0.00 | 0.00 | 0.00 | 64 | |
| 20260831171008 | 79 | 298 | 0.0 | 3.0 | 0.00 | 0.00 | 0.00 | 65 | |
| 20260831165849 | 76 | 298 | 0.0 | 2.0 | 0.00 | 0.00 | 0.00 | 71 | |
| 20260831164734 | 74 | 298 | 0.0 | 0.0 | 0.00 | 0.00 | 0.00 | 76 | |
| 20260831164230 | 73 | 298 | 0.0 | 2.0 | 0.00 | 0.00 | 0.00 | 80 | |
| 20260831163729 | 72 | 298 | 0.0 | 0.0 | 0.00 | 0.00 | 0.00 | 84 | |
| 20260831163237 | 71 | 298 | 0.0 | 2.0 | 0.00 | 0.00 | 0.00 | 86 | |
| 20260831162726 | 70 | 298 | 0.0 | 2.0 | 0.00 | 0.00 | 0.00 | 90 | |
| 20260831162215 | 69 | 298 | 0.0 | 2.0 | 0.00 | 0.00 | 0.00 | 93 | |
| 20260831161655 | 68 | 298 | 0.0 | 0.0 | 0.00 | 0.00 | 0.00 | 94 | |
| 20260831161137 | 67 | 298 | 0.0 | 0.0 | 0.00 | 0.00 | 0.00 | 94 | |
| 20260831160633 | 66 | 298 | 0.0 | 0.0 | 0.00 | 0.00 | 0.00 | 94 | |
| 20260831160134 | 66 | 298 | 0.0 | 0.0 | 0.00 | 0.00 | 0.00 | 95 | |
| 20260831155641 | 65 | 298 | 0.0 | 0.0 | 0.00 | 0.00 | 0.00 | 95 | |
| 20260831155127 | 64 | 298 | 0.0 | 0.0 | 0.00 | 0.00 | 0.00 | 95 | |
| 20260831154610 | 63 | 298 | 0.0 | 0.0 | 0.00 | 0.00 | 0.00 | 95 | |
| 20260831153433 | 62 | 298 | 0.0 | 0.0 | 0.00 | 0.00 | 0.00 | 94 | |
| 20260831152931 | 61 | 298 | 0.0 | 0.0 | 0.00 | 0.00 | 0.00 | 94 | |
| 20260831152422 | 61 | 298 | 0.0 | 0.0 | 0.00 | 0.00 | 0.00 | 93 | |
| 20260831151303 | 59 | 298 | 0.0 | 0.0 | 0.00 | 0.00 | 0.00 | 92 | |
| 20260831150802 | 59 | 298 | 0.0 | 0.0 | 0.00 | 0.00 | 0.00 | 92 | |
| 20260831150306 | 59 | 298 | 0.0 | 0.0 | 0.00 | 0.00 | 0.00 | 92 | |
| 20260831145815 | 58 | 298 | 0.0 | 0.0 | 0.00 | 0.00 | 0.00 | 92 | |
| 20260831144650 | 57 | 298 | 0.0 | 0.0 | 0.00 | 0.00 | 0.00 | 90 | |
| 20260831144135 | 57 | 298 | 0.0 | 0.0 | 0.00 | 0.00 | 0.00 | 89 | |
| 20260831143627 | 57 | 298 | 0.0 | 0.0 | 0.00 | 0.00 | 0.00 | 89 | |
| 20260831143115 | 57 | 298 | 0.0 | 0.0 | 0.00 | 0.00 | 0.00 | 89 | |
| 20260831142607 | 57 | 298 | 0.0 | 0.0 | 0.00 | 0.00 | 0.00 | 89 | |
| 20260831142101 | 57 | 298 | 0.0 | 0.0 | 0.00 | 0.00 | 0.00 | 88 | |
| 20260831141542 | 57 | 298 | 0.0 | 0.0 | 0.00 | 0.00 | 0.00 | 88 | |
| 20260831140407 | 57 | 298 | 0.0 | 0.0 | 0.00 | 0.00 | 0.00 | 88 | |
| 20260831135912 | 57 | 298 | 0.0 | 0.0 | 0.00 | 0.00 | 0.00 | 88 | |
| 20260831134742 | 57 | 298 | 0.0 | 0.0 | 0.00 | 0.00 | 0.00 | 88 | |
| 20260831134241 | 57 | 298 | 0.0 | 0.0 | 0.00 | 0.00 | 0.00 | 88 | |
| 20260831133726 | 58 | 298 | 0.0 | 0.0 | 0.00 | 0.00 | 0.00 | 88 | |
| 20260831132603 | 58 | 298 | 0.0 | 0.0 | 0.00 | 0.00 | 0.00 | 88 | |
| 20260831132053 | 58 | 298 | 0.0 | 0.0 | 0.00 | 0.00 | 0.00 | 88 | |
| 20260831131536 | 58 | 298 | 0.0 | 0.0 | 0.00 | 0.00 | 0.00 | 88 | |
| 20260831131038 | 58 | 298 | 0.0 | 0.0 | 0.00 | 0.00 | 0.00 | 88 | |
| 20260831130528 | 58 | 298 | 0.0 | 0.0 | 0.00 | 0.00 | 0.00 | 88 | |
| 20260831130015 | 58 | 298 | 0.0 | 0.0 | 0.00 | 0.00 | 0.00 | 88 | |
| 20260831124858 | 58 | 298 | 0.0 | 0.0 | 0.00 | 0.00 | 0.00 | 87 | |
| 20260831124348 | 58 | 298 | 0.0 | 0.0 | 0.00 | 0.00 | 0.00 | 87 | |
| 20260831123839 | 58 | 298 | 0.0 | 0.0 | 0.00 | 0.00 | 0.00 | 87 | |
| 20260831123336 | 58 | 298 | 0.0 | 0.0 | 0.00 | 0.00 | 0.00 | 87 | |
| 20260831122824 | 58 | 298 | 0.0 | 0.0 | 0.00 | 0.00 | 0.00 | 87 | |
| 20260831122306 | 59 | 298 | 0.0 | 0.0 | 0.00 | 0.00 | 0.00 | 87 | |
| 20260831121750 | 59 | 298 | 0.0 | 0.0 | 0.00 | 0.00 | 0.00 | 87 | |
| 20260831121256 | 59 | 298 | 0.0 | 0.0 | 0.00 | 0.00 | 0.00 | 87 | |
| 20260831120801 | 59 | 298 | 0.0 | 0.0 | 0.00 | 0.00 | 0.00 | 87 | |
| 20260831120242 | 59 | 298 | 0.0 | 0.0 | 0.00 | 0.00 | 0.00 | 86 | |
| 20260831115740 | 59 | 298 | 0.0 | 0.0 | 0.00 | 0.00 | 0.00 | 87 | |
| 20260831115230 | 59 | 298 | 0.0 | 0.0 | 0.00 | 0.00 | 0.00 | 87 | |
| 20260831114105 | 59 | 298 | 0.0 | 0.0 | 0.00 | 0.00 | 0.00 | 87 | |
| 20260831113548 | 60 | 298 | 0.0 | 0.0 | 0.00 | 0.00 | 0.00 | 86 | |
| 20260831113034 | 60 | 298 | 0.0 | 0.0 | 0.00 | 0.00 | 0.00 | 86 | |
| 20260831112520 | 60 | 298 | 0.0 | 0.0 | 0.00 | 0.00 | 0.00 | 87 | |
| 20260831111347 | 60 | 298 | 0.0 | 0.0 | 0.00 | 0.00 | 0.00 | 87 | |
| 20260831110849 | 60 | 298 | 0.0 | 0.0 | 0.00 | 0.00 | 0.00 | 87 | |
| 20260831110357 | 60 | 298 | 0.0 | 0.0 | 0.00 | 0.00 | 0.00 | 86 | |
| 20260831105849 | 60 | 298 | 0.0 | 0.0 | 0.00 | 0.00 | 0.00 | 87 | |
| 20260831104707 | 60 | 298 | 0.0 | 0.0 | 0.00 | 0.00 | 0.00 | 86 | |
| 20260831104151 | 60 | 298 | 0.0 | 0.0 | 0.00 | 0.00 | 0.00 | 86 | |
| 20260831103022 | 61 | 298 | 0.0 | 0.0 | 0.00 | 0.00 | 0.00 | 86 | |
| 20260831102518 | 61 | 298 | 0.0 | 0.0 | 0.00 | 0.00 | 0.00 | 85 | |
| 20260831101344 | 61 | 298 | 0.0 | 0.0 | 0.00 | 0.00 | 0.00 | 85 | |
| 20260831100827 | 61 | 298 | 0.0 | 0.0 | 0.00 | 0.00 | 0.00 | 85 | |
| 20260831095654 | 61 | 298 | 0.0 | 0.0 | 0.00 | 0.00 | 0.00 | 85 | |
| 20260831095154 | 62 | 298 | 0.0 | 0.0 | 0.00 | 0.00 | 0.00 | 85 | |
| 20260831094648 | 62 | 298 | 0.0 | 0.0 | 0.00 | 0.00 | 0.00 | 85 | |
| 20260831092901 | 62 | 298 | 0.0 | 0.0 | 0.00 | 0.00 | 0.00 | 84 | |
| 20260831092359 | 62 | 298 | 0.0 | 0.0 | 0.00 | 0.00 | 0.00 | 84 | |
| 20260831090007 | 63 | 298 | 0.0 | 0.0 | 0.00 | 0.00 | 0.00 | 83 | |
| 20260831085456 | 63 | 298 | 0.0 | 0.0 | 0.00 | 0.00 | 0.00 | 83 | |
| 20260831084329 | 64 | 298 | 0.0 | 0.0 | 0.00 | 0.00 | 0.00 | 83 | |
| 20260831083823 | 64 | 298 | 0.0 | 0.0 | 0.00 | 0.00 | 0.00 | 83 | |
| 20260831083320 | 64 | 298 | 0.0 | 0.0 | 0.00 | 0.00 | 0.00 | 83 | |
| 20260831082811 | 64 | 298 | 0.0 | 0.0 | 0.00 | 0.00 | 0.00 | 83 | |
| 20260831081637 | 64 | 298 | 0.0 | 0.0 | 0.00 | 0.00 | 0.00 | 83 | |
| 20260831081140 | 65 | 298 | 0.0 | 0.0 | 0.00 | 0.00 | 0.00 | 83 | |
| 20260831080627 | 65 | 298 | 0.0 | 0.0 | 0.00 | 0.00 | 0.00 | 83 | |
| 20260831080125 | 65 | 298 | 0.0 | 0.0 | 0.00 | 0.00 | 0.00 | 83 | |
| 20260831073043 | 65 | 298 | 0.0 | 0.0 | 0.00 | 0.00 | 0.00 | 83 | |
| 20260831072538 | 65 | 298 | 0.0 | 0.0 | 0.00 | 0.00 | 0.00 | 83 | |
| 20260831072037 | 65 | 298 | 0.0 | 0.0 | 0.00 | 0.00 | 0.00 | 83 | |
| 20260831071522 | 65 | 298 | 0.0 | 0.0 | 0.00 | 0.00 | 0.00 | 83 | |
| 20260831071009 | 65 | 298 | 0.0 | 0.0 | 0.00 | 0.00 | 0.00 | 82 | |
| 20260831070455 | 65 | 298 | 0.0 | 0.0 | 0.00 | 0.00 | 0.00 | 83 | |
| 20260831065346 | 65 | 298 | 0.0 | 0.0 | 0.00 | 0.00 | 0.00 | 83 | |
| 20260831064836 | 65 | 298 | 0.0 | 0.0 | 0.00 | 0.00 | 0.00 | 82 | |
| 20260831064342 | 65 | 298 | 0.0 | 0.0 | 0.00 | 0.00 | 0.00 | 81 | |
| 20260831063830 | 65 | 298 | 0.0 | 0.0 | 0.00 | 0.00 | 0.00 | 81 | |
| 20260831063313 | 65 | 298 | 0.0 | 0.0 | 0.00 | 0.00 | 0.00 | 81 | |
| 20260831062814 | 66 | 298 | 0.0 | 0.0 | 0.00 | 0.00 | 0.00 | 81 | |
| 20260831062307 | 66 | 298 | 0.0 | 0.0 | 0.00 | 0.00 | 0.00 | 81 | |
| 20260831061155 | 66 | 298 | 0.0 | 0.0 | 0.00 | 0.00 | 0.00 | 81 | |
| 20260831060704 | 66 | 298 | 0.0 | 0.0 | 0.00 | 0.00 | 0.00 | 81 | |
| 20260831060203 | 66 | 298 | 0.0 | 0.0 | 0.00 | 0.00 | 0.00 | 80 | |
| 20260831055655 | 66 | 298 | 0.0 | 0.0 | 0.00 | 0.00 | 0.00 | 80 | |
| 20260831055200 | 67 | 298 | 0.0 | 0.0 | 0.00 | 0.00 | 0.00 | 80 | |
| 20260831054641 | 67 | 298 | 0.0 | 0.0 | 0.00 | 0.00 | 0.00 | 79 | |
| 20260831053514 | 67 | 298 | 0.0 | 0.0 | 0.00 | 0.00 | 0.00 | 78 | |
| 20260831053002 | 67 | 298 | 0.0 | 0.0 | 0.00 | 0.00 | 0.00 | 78 | |
| 20260831052504 | 68 | 299 | 0.0 | 0.0 | 0.00 | 0.00 | 0.00 | 78 | |
| 20260831051949 | 68 | 298 | 0.0 | 0.0 | 0.00 | 0.00 | 0.00 | 77 | |
| 20260831051452 | 68 | 298 | 0.0 | 0.0 | 0.00 | 0.00 | 0.00 | 77 | |
| 20260831050944 | 68 | 298 | 0.0 | 0.0 | 0.00 | 0.00 | 0.00 | 77 | |
| 20260831045809 | 69 | 298 | 0.0 | 0.0 | 0.00 | 0.00 | 0.00 | 76 | |
| 20260831045251 | 69 | 298 | 0.0 | 0.0 | 0.00 | 0.00 | 0.00 | 76 | |
| 20260831044747 | 69 | 298 | 0.0 | 0.0 | 0.00 | 0.00 | 0.00 | 76 | |
| 20260831044242 | 69 | 298 | 0.0 | 0.0 | 0.00 | 0.00 | 0.00 | 75 | |
| 20260831043743 | 70 | 298 | 0.0 | 0.0 | 0.00 | 0.00 | 0.00 | 74 | |
| 20260831042617 | 70 | 298 | 0.0 | 0.0 | 0.00 | 0.00 | 0.00 | 74 | |
| 20260831042059 | 70 | 298 | 0.0 | 0.0 | 0.00 | 0.00 | 0.00 | 74 | |
| 20260831040343 | 71 | 298 | 0.0 | 0.0 | 0.00 | 0.00 | 0.00 | 72 | |
| 20260831035844 | 72 | 299 | 0.0 | 0.0 | 0.00 | 0.00 | 0.00 | 71 | |
| 20260831035341 | 72 | 298 | 0.0 | 0.0 | 0.00 | 0.00 | 0.00 | 71 | |
| 20260831034845 | 73 | 298 | 0.0 | 0.0 | 0.00 | 0.00 | 0.00 | 70 | |
| 20260831034332 | 73 | 298 | 0.0 | 0.0 | 0.00 | 0.00 | 0.00 | 70 | |
| 20260831033839 | 73 | 298 | 0.0 | 0.0 | 0.00 | 0.00 | 0.00 | 69 | |
| 20260831033329 | 74 | 298 | 0.0 | 0.0 | 0.00 | 0.00 | 0.00 | 68 | |
| 20260831031537 | 75 | 298 | 0.0 | 0.0 | 0.00 | 0.00 | 0.00 | 66 | |
| 20260831031020 | 76 | 298 | 0.0 | 0.0 | 0.00 | 0.00 | 0.00 | 66 | |
| 20260831030506 | 76 | 298 | 0.0 | 0.0 | 0.00 | 0.00 | 0.00 | 64 | |
| 20260831025955 | 77 | 299 | 0.0 | 0.0 | 0.00 | 0.00 | 0.00 | 64 | |
| 20260831025450 | 77 | 299 | 0.0 | 0.0 | 0.00 | 0.00 | 0.00 | 63 | |
| 20260831024330 | 78 | 299 | 0.0 | 0.0 | 0.00 | 0.00 | 0.00 | 62 | |
| 20260831023208 | 79 | 298 | 0.0 | 0.0 | 0.00 | 0.00 | 0.00 | 60 | |
| 20260831022713 | 80 | 298 | 0.0 | 0.0 | 0.00 | 0.00 | 0.00 | 60 | |
| 20260831021532 | 81 | 299 | 0.0 | 0.0 | 0.00 | 0.00 | 0.00 | 58 | |
| 20260831021025 | 81 | 299 | 0.0 | 0.0 | 0.00 | 0.00 | 0.00 | 57 | |
| 20260831020534 | 82 | 299 | 0.0 | 0.0 | 0.00 | 0.00 | 0.00 | 56 | |
| 20260831020015 | 82 | 298 | 0.0 | 1.0 | 0.00 | 0.00 | 0.00 | 56 | |
| 20260831015508 | 83 | 299 | 0.0 | 1.0 | 0.00 | 0.00 | 0.00 | 55 | |
| 20260831014953 | 83 | 299 | 0.0 | 3.0 | 0.00 | 0.00 | 0.00 | 55 | |
| 20260831014453 | 84 | 298 | 1.0 | 3.0 | 0.00 | 0.00 | 0.00 | 54 | |
| 20260831013940 | 84 | 299 | 1.0 | 4.0 | 0.00 | 0.00 | 0.00 | 53 | |
| 20260831012825 | 85 | 298 | 2.0 | 4.0 | 0.00 | 0.00 | 0.00 | 52 | |
| 20260831012315 | 86 | 299 | 1.0 | 4.0 | 0.00 | 0.00 | 0.00 | 52 | |
| 20260831011804 | 86 | 299 | 1.0 | 4.0 | 0.00 | 0.00 | 0.00 | 51 | |
| 20260831011244 | 87 | 299 | 2.0 | 4.0 | 0.00 | 0.00 | 0.00 | 51 | |
| 20260831010748 | 87 | 299 | 2.0 | 5.0 | 0.00 | 0.00 | 0.00 | 50 | |
| 20260831010246 | 88 | 299 | 1.0 | 5.0 | 0.00 | 0.00 | 0.00 | 50 | |
| 20260831005742 | 88 | 299 | 0.0 | 7.0 | 0.00 | 0.00 | 0.00 | 49 | |
| 20260831005227 | 88 | 299 | 0.0 | 7.0 | 0.00 | 0.00 | 0.00 | 50 | |
| 20260831004717 | 88 | 299 | 1.0 | 7.0 | 0.00 | 0.00 | 0.00 | 50 | |
| 20260831004215 | 89 | 298 | 3.0 | 7.0 | 0.00 | 0.00 | 0.00 | 48 | |
| 20260831003719 | 89 | 302 | 3.0 | 6.0 | 0.00 | 0.00 | 0.00 | 48 | |
| 20260831002540 | 90 | 294 | 2.0 | 6.0 | 0.00 | 0.00 | 0.00 | 47 | |
| 20260831002027 | 90 | 303 | 2.0 | 6.0 | 0.00 | 0.00 | 0.00 | 47 | |
| 20260831000916 | 91 | 297 | 2.0 | 6.0 | 0.00 | 0.00 | 0.00 | 46 | |
| 20260831000417 | 92 | 295 | 1.0 | 8.0 | 0.00 | 0.00 | 0.00 | 45 | |
| 20260830235923 | 92 | 309 | 2.0 | 8.0 | 0.00 | 0.00 | 0.00 | 46 | |
| 20260830235415 | 92 | 336 | 3.0 | 8.0 | 0.00 | 0.00 | 0.00 | 45 | |
| 20260830234924 | 92 | 289 | 2.0 | 8.0 | 0.00 | 0.00 | 0.00 | 44 | |
| 20260830234420 | 93 | 306 | 2.0 | 9.0 | 0.00 | 0.00 | 0.00 | 43 | |
| 20260830233250 | 94 | 300 | 2.0 | 9.0 | 0.00 | 0.00 | 0.00 | 42 | |
| 20260830232148 | 94 | 296 | 1.0 | 7.0 | 0.00 | 0.00 | 0.00 | 42 | |
| 20260830231631 | 94 | 344 | 1.0 | 4.0 | 0.00 | 0.00 | 0.00 | 43 |